Tracking 30696 objects as of 16-Jun-2025
HD Live streaming from Space Station
objects crossing your sky now

STARLINK-31226

Track STARLINK-31226 now!
10-day predictions
STARLINK-31226 is classified as:


NORAD ID: 58858
Int'l Code: 2024-019F
Perigee: 494.0 km
Apogee: 496.4 km
Inclination: 43.0 °
Period: 94.4 minutes
Semi major axis: 6866 km
RCS: Unknown
Launch date: January 29, 2024
Source: United States (US)
Launch site: AIR FORCE EASTERN TEST RANGE (AFETR)
Your satellite tracking list
Your tracking list is empty




NASA's NSSDC Master Catalog

Two Line Element Set (TLE):
1 58858U 24019F   25166.69200810 -.00000774  00000-0 -19737-4 0  9997
2 58858  43.0035 316.3623 0001793 271.6567  88.4078 15.25904414 78251
Source of the keplerian elements: AFSPC